Location: Brockenhaus
(51.8000°N, 10.6167°E)
Time: 22:12:53
(UTC+00:00)

Daily predictions for brighter satellites

Satellite Brightness Start Highest point End
(mag) Time Altitude Azimuth Time Altitude Azimuth Time Altitude Azimuth
Landsat 7 4.1 19:53:31 10° SSE 19:58:11 58° ENE 20:02:53 10° N
Cosmos 1908 Rocket 4.2 19:54:21 10° NNW 19:58:43 60° W 20:03:06 10° S
Cosmos 1954 Rocket 4.3 19:54:05 10° NNW 19:59:16 58° ENE 20:04:28 10° SE
STARLINK-1128 3.8 19:56:23 10° W 20:00:32 80° N 20:04:42 10° ENE
STARLINK-1088 3.8 19:56:58 10° WNW 20:01:04 65° SSW 20:05:11 10° ESE
STARLINK-1122 3.8 19:59:12 10° W 20:03:22 78° N 20:07:31 10° E
Cosmos 1833 Rocket 3.0 19:59:37 10° NNW 20:05:12 60° NE 20:10:45 10° SE
STARLINK-1113 3.8 20:01:22 10° W 20:05:31 79° N 20:09:41 10° E
ERS-1 Rocket 3.5 20:01:11 10° SE 20:05:59 46° ENE 20:10:47 10° N
STARLINK-1115 3.8 20:01:55 10° WNW 20:06:02 62° SSW 20:10:07 10° SE
Cosmos 1975 2.9 20:03:07 10° N 20:07:13 88° E 20:11:16 10° S
STARLINK-1126 3.8 20:04:08 10° W 20:08:18 79° N 20:12:27 10° E
STARLINK-1119 3.8 20:06:21 10° W 20:10:30 78° N 20:14:39 10° E
STARLINK-1076 3.8 20:06:55 10° WNW 20:11:00 59° SSW 20:15:05 10° SE
Tsikada Rocket 4.0 20:05:04 10° S 20:11:17 86° E 20:17:30 10° N
Spot 2 Rocket 3.5 20:06:19 10° SSE 20:11:22 88° ENE 20:16:26 10° NNW
CZ-2C R/B 3.3 20:05:53 10° N 20:11:24 64° WNW 20:16:57 10° SSW
Meteor 2-9 Rocket 4.2 20:06:01 10° NNW 20:11:31 90° W 20:16:52 10° S
Cosmos 676 Rocket 4.1 20:06:46 10° NNW 20:12:01 73° ENE 20:17:17 10° SSE
STARLINK-1082 3.7 20:09:10 10° WNW 20:13:20 81° N 20:17:29 10° E
STARLINK-1114 3.8 20:11:21 10° W 20:15:31 77° N 20:19:40 10° E
GENESIS II 4.3 20:11:31 10° NW 20:15:36 81° NE 20:19:35 10° SE
STARLINK-1092 3.9 20:11:53 10° WNW 20:15:57 56° SSW 20:20:00 10° SE
STARLINK-1100 3.7 20:14:09 10° WNW 20:18:19 82° NNE 20:22:28 10° E
Cosmos 389 Rocket 3.1 20:15:05 10° SSW 20:18:30 58° WNW 20:21:59 10° N
SL-4 R/B 2.5 20:15:35 10° NNW 20:18:38 35° NE 20:21:30 10° ESE
Cosmos 2056 Rocket 3.5 20:15:00 10° S 20:19:59 57° ESE 20:25:01 10° NNE
STARLINK-1205 4.4 20:16:46 10° SSW 20:20:20 29° SE 20:23:56 10° E
STARLINK-1130 (DARKSAT) 3.8 20:16:19 10° W 20:20:28 76° N 20:24:37 10° E
Okean 1 3.8 20:16:49 10° SSW 20:20:51 65° WNW 20:24:54 10° N
STARLINK-1080 4.0 20:16:55 10° WNW 20:20:58 53° SSW 20:24:55 10° SE
STARLINK-1083 3.7 20:19:07 10° WNW 20:23:18 84° NNE 20:27:27 10° E
ISS -3.8 20:21:02 10° W 20:24:26 81° S 20:27:48 10° ESE
STARLINK-1218 4.4 20:21:38 10° SSW 20:25:16 31° SE 20:28:56 10° E
STARLINK-1084 3.8 20:21:18 10° W 20:25:28 75° N 20:29:37 10° E
Iridium 51 4.4 20:21:33 10° S 20:25:39 83° W 20:29:26 10° N
STARLINK-1090 4.0 20:21:53 10° WNW 20:25:55 50° SSW 20:29:41 11° SE
STARLINK-1125 3.7 20:24:06 10° WNW 20:28:16 86° N 20:32:26 10° ESE
Meteor 1-19 Rocket 4.3 20:22:57 10° S 20:28:34 89° E 20:34:24 10° NNE
STARLINK-1254 4.3 20:26:31 10° SSW 20:30:14 33° SE 20:33:57 10° E
STARLINK-1098 3.8 20:26:18 10° W 20:30:28 74° N 20:34:37 10° E
STARLINK-1089 4.1 20:26:53 10° WNW 20:30:52 47° SSW 20:34:28 12° SE
STARLINK-67 2.1 20:28:55 10° W 20:30:52 63° N 20:32:50 10° ENE
SL-8 R/B 3.9 20:26:35 10° WSW 20:31:15 52° SSE 20:35:56 10° E
CARTOSAT-1 3.7 20:28:14 10° SSE 20:32:27 67° ENE 20:36:46 10° N
Cosmos 2278 Rocket 2.6 20:27:38 10° S 20:33:00 45° ESE 20:38:24 10° NE
STARLINK-1109 3.6 20:29:05 10° WNW 20:33:15 88° NNE 20:37:24 10° ESE
STARLINK-1231 4.2 20:31:26 10° SSW 20:35:12 35° SE 20:38:59 10° E
STARLINK-1123 3.9 20:31:18 10° W 20:35:27 74° N 20:39:35 10° E
STARLINK-1107 4.2 20:31:52 10° WNW 20:35:49 44° SSW 20:39:15 13° SE
Meteor 1-12 Rocket 4.3 20:31:56 10° NNW 20:37:38 83° ENE 20:43:14 10° SSE
STARLINK-1091 3.6 20:34:03 10° WNW 20:38:13 89° SSW 20:42:23 10° ESE
Cosmos 1437 Rocket 3.8 20:37:00 13° SE 20:39:40 27° E 20:42:54 10° NE
Lacrosse 5 1.9 20:34:45 10° WNW 20:39:51 88° NNE 20:44:50 10° ESE
STARLINK-1232 4.1 20:36:20 10° SW 20:40:09 37° SSE 20:43:59 10° E
STARLINK-1097 3.9 20:36:17 10° W 20:40:26 74° N 20:44:35 10° E
STARLINK-1066 4.2 20:36:52 10° WNW 20:40:48 42° SSW 20:44:02 14° SE
NOSS 2-3 (E) 3.7 20:37:05 10° SSW 20:41:24 67° SE 20:46:39 10° NE
Terra 2.1 20:38:31 12° SSE 20:42:46 59° ENE 20:47:28 10° N
STARLINK-1072 3.6 20:39:03 10° WNW 20:43:13 87° SSW 20:47:22 10° ESE
Cosmos 1844 Rocket 3.9 20:38:13 10° SW 20:43:41 47° NW 20:49:10 10° NNE
STARLINK-1208 4.0 20:41:13 10° SW 20:45:04 39° SSE 20:48:58 10° ENE
STARLINK-1099 3.8 20:41:14 10° W 20:45:24 74° N 20:49:33 10° E
STARLINK-1228 2.9 20:42:21 10° WSW 20:45:40 70° SSE 20:48:59 10° ENE
STARLINK-1081 4.3 20:41:52 10° WNW 20:45:45 39° SSW 20:48:49 15° SSE
STARLINK-1096 3.6 20:44:03 10° WNW 20:48:13 84° SSW 20:52:22 10° ESE
IGS 5A 4.2 20:44:43 10° S 20:48:45 49° W 20:52:49 10° NNW
STARLINK-1234 2.7 20:46:10 10° WSW 20:49:16 69° SSE 20:52:24 10° ENE
STARLINK-1271 4.0 20:46:09 10° SW 20:50:03 42° SSE 20:53:59 10° ENE
Cosmos 1300 Rocket 3.6 20:45:51 10° NNW 20:50:19 83° W 20:54:26 12° S
STARLINK-1104 3.8 20:46:14 10° W 20:50:24 74° N 20:54:33 10° E
STARLINK-1212 2.8 20:47:35 10° WSW 20:50:38 59° SSE 20:53:43 10° ENE
STARLINK-1070 4.4 20:46:51 10° W 20:50:41 37° SSW 20:53:35 16° SSE
Cosmos 1452 Rocket 4.0 20:46:07 10° S 20:51:02 41° ESE 20:55:59 10° NE
STARLINK-1209 2.8 20:47:54 10° WSW 20:51:02 73° SSE 20:54:11 10° ENE
STARLINK-1105 2.8 20:48:04 10° WSW 20:51:07 59° SSE 20:54:10 10° ENE
STARLINK-1247 2.8 20:48:57 10° WSW 20:52:01 60° SSE 20:55:07 10° ENE
Cosmos 2084 Rocket 4.1 20:47:56 10° WSW 20:52:12 60° NW 20:56:34 10° NE
STARLINK-1227 2.8 20:49:25 10° WSW 20:52:29 60° SSE 20:55:33 10° ENE
Crew Dragon 0.0 20:50:51 10° W 20:52:57 59° SSW 20:54:13 21° ESE
Okean 3 3.5 20:48:48 10° S 20:53:07 89° WNW 20:57:28 10° N
STARLINK-1079 3.6 20:49:00 10° WNW 20:53:09 81° SSW 20:57:10 11° ESE
STARLINK-1226 2.8 20:50:16 10° WSW 20:53:20 61° SSE 20:56:26 10° ENE
STARLINK-1215 2.8 20:51:12 10° WSW 20:54:17 62° SSE 20:57:23 10° ENE
STARLINK-1154 3.9 20:51:04 10° SW 20:55:01 44° SSE 20:58:58 10° ENE
USA 245 4.5 20:51:48 10° SSW 20:55:02 29° W 20:57:45 10° NW
STARLINK-1144 3.8 20:51:14 10° W 20:55:24 74° N 20:59:33 10° E
STARLINK-1217 2.8 20:52:58 10° WSW 20:56:02 63° SSE 20:59:08 10° ENE
STARLINK-1229 2.8 20:53:53 10° WSW 20:56:58 64° SSE 21:00:04 10° ENE
Cosmos 1420 Rocket 4.0 20:52:34 10° S 20:57:42 63° ESE 21:02:51 10° NNE
STARLINK-1270 2.8 20:54:44 10° WSW 20:57:49 64° SSE 21:00:55 10° ENE
STARLINK-1116 3.6 20:54:00 10° WNW 20:58:09 79° SSW 21:01:58 12° ESE
STARLINK-1189 2.8 20:56:35 10° WSW 20:59:39 66° SSE 21:02:46 10° ENE
STARLINK-1197 3.8 20:56:00 10° SW 20:59:58 47° SSE 21:03:58 10° ENE
Cosmos 2221 Rocket 3.7 20:55:30 10° SSW 21:00:00 83° W 21:04:35 10° N
STARLINK-1103 3.8 20:56:13 10° W 21:00:23 74° N 21:04:32 10° E
STARLINK-1188 2.8 20:57:26 10° WSW 21:00:32 66° SSE 21:03:39 10° ENE
COSMOS 2406 4.1 20:55:17 10° NW 21:00:42 42° WSW 21:05:59 10° S
MTI 4.5 20:57:55 10° NNE 21:00:52 35° E 21:02:33 20° SSE
STARLINK-1235 2.7 20:58:08 10° WSW 21:01:13 76° SSE 21:04:19 10° ENE
NOSS 2-3 (D) 3.7 20:56:57 10° SW 21:01:20 85° SE 21:06:41 10° NE
STARLINK-1187 2.7 20:58:33 10° WSW 21:01:38 72° SSE 21:04:44 10° ENE
Meteor 1-13 Rocket 4.2 20:57:21 10° S 21:02:54 75° E 21:08:38 10° NNE
STARLINK-1191 2.7 20:59:55 10° WSW 21:03:00 68° SSE 21:06:06 10° ENE
STARLINK-1221 2.7 21:00:48 10° WSW 21:03:53 69° SSE 21:06:58 10° ENE
Cosmos 371 Rocket 3.5 21:00:02 10° S 21:04:38 50° ESE 21:09:22 10° NNE
STARLINK-1222 2.7 21:01:40 10° WSW 21:04:45 70° SSE 21:07:51 10° ENE
STARLINK-1198 3.8 21:00:54 10° SW 21:04:54 49° SSE 21:08:55 10° ENE
STARLINK-1101 3.8 21:01:12 10° W 21:05:21 75° N 21:09:31 10° E
USA 215 3.3 20:59:01 10° ESE 21:05:36 87° NNE 21:12:11 10° WNW
STARLINK-1214 2.7 21:02:36 10° WSW 21:05:41 70° SSE 21:08:47 10° ENE
Resurs 01 Rocket 4.1 21:03:10 10° SW 21:06:01 17° W 21:08:52 10° NW
Meteor 2-4 Rocket 3.8 21:01:02 10° SSW 21:06:24 73° WNW 21:11:47 10° N
Abrixas rocket 2.3 21:04:58 10° WSW 21:07:46 41° S 21:09:45 17° ESE
SPOT 1/Viking Rocket 4.4 21:02:52 10° S 21:07:50 46° W 21:12:49 10° NNW
STARLINK-1094 3.6 21:03:58 10° WNW 21:08:06 72° SSW 21:11:32 15° ESE
Cosmos 1674 Rocket 3.7 21:04:49 15° S 21:08:16 57° E 21:12:35 10° NNE
STARLINK-1199 3.7 21:05:52 10° SW 21:09:54 52° SSE 21:13:57 10° ENE
STARLINK-1102 3.8 21:06:12 10° W 21:10:22 76° N 21:14:32 10° E
Meteor 1-4 Rocket 4.1 21:09:16 10° SW 21:12:27 33° WNW 21:15:39 10° N
USA 229 DEB 4.2 21:05:54 10° WSW 21:12:28 64° NW 21:19:28 10° NE
USA 229 4.2 21:06:01 10° WSW 21:12:34 64° NW 21:19:34 10° NE
STARLINK-1117 3.6 21:08:57 10° WNW 21:13:05 69° SSW 21:16:19 16° ESE
STARLINK-1210 3.6 21:10:48 10° SW 21:14:50 55° SSE 21:18:55 10° ENE
STARLINK-1111 3.8 21:11:11 10° W 21:15:20 76° N 21:19:30 10° E
Cosmos 1378 Rocket 3.8 21:12:35 17° SSE 21:15:44 52° E 21:20:03 10° NNE
NOSS 3 (A) 4.4 21:13:53 10° SSW 21:16:33 59° SE 21:19:38 10° NE
SPOT 5 3.5 21:12:28 13° S 21:17:00 58° W 21:22:16 10° NNW
STARLINK-1078 3.6 21:13:55 10° WNW 21:18:02 66° SSW 21:21:05 17° SE
Nadezhda 4 Rocket 4.1 21:13:38 15° S 21:18:43 60° E 21:24:45 10° NNE
STARLINK-1219 3.6 21:15:45 10° SW 21:19:49 58° SSE 21:23:54 10° ENE
Cosmos 1733 4.3 21:16:47 10° N 21:20:17 32° ENE 21:22:28 18° ESE
STARLINK-1073 3.7 21:16:10 10° W 21:20:20 77° N 21:24:30 10° E
NOSS 3-1 (C) 4.3 21:14:53 10° WSW 21:20:33 55° NNW 21:27:16 10° NE
Cosmos 1741 Rocket 4.0 21:15:28 10° NNW 21:20:44 82° WSW 21:24:31 19° SSE
NOSS 3-1 (A) 3.8 21:15:42 10° SW 21:21:23 71° NW 21:28:09 10° NE
ATLAS CENTAUR R/B 3.1 21:20:24 10° WNW 21:21:58 20° NNW 21:23:30 10° NE
STARLINK-1108 3.6 21:18:54 10° WNW 21:23:01 63° SSW 21:25:52 19° SE
ATLAS 3B R/B 4.3 21:18:26 10° NW 21:24:25 33° NNE 21:30:32 10° ENE
STARLINK-1211 3.6 21:20:41 10° SW 21:24:46 61° SSE 21:28:52 10° ENE
STARLINK-1121 3.7 21:21:08 10° W 21:25:18 79° N 21:29:28 10° E
Cosmos 1975 Rocket 4.4 21:23:46 18° SE 21:25:59 27° E 21:29:42 10° NNE
Okean 2 Rocket 4.4 21:22:03 10° NNW 21:26:05 34° W 21:30:04 10° SSW
STARLINK-1071 3.7 21:23:53 10° WNW 21:27:58 60° SSW 21:30:39 20° SE
CENTAUR R/B 3.9 21:21:26 10° NW 21:28:44 49° NNE 21:36:58 10° ESE
Cosmos 2297 4.3 21:25:26 18° SSE 21:29:05 38° ESE 21:34:21 10° NE
STARLINK-1245 3.5 21:25:39 10° WSW 21:29:45 65° SSE 21:33:52 10° ENE
STARLINK-1106 3.7 21:26:07 10° WNW 21:30:18 80° N 21:34:27 10° E
BREEZE-M DEB (TANK) 4.3 21:17:35 10° WNW 21:32:04 56° SW 21:35:38 19° SE
STARLINK-1110 3.7 21:28:05 10° WNW 21:32:10 57° SSW 21:34:41 22° SE
NOSS 2-3 (C) 4.4 21:27:48 10° WSW 21:32:14 62° NW 21:37:44 10° NE
STARLINK-1233 3.5 21:30:36 10° WSW 21:34:43 68° SSE 21:38:50 10° ENE
Cosmos 1850 Rocket 4.3 21:29:30 10° NNW 21:34:47 63° WSW 21:38:31 20° S
STARLINK-1112 3.7 21:31:07 10° WNW 21:35:17 82° NNE 21:39:27 10° E
ERBS 2.5 21:32:46 10° SW 21:35:56 44° SE 21:39:08 10° ENE
STARLINK-1143 4.5 21:35:45 22° S 21:37:19 28° SE 21:40:54 10° E
STARLINK-1124 3.8 21:33:52 10° WNW 21:37:55 54° SSW 21:40:13 23° SE
STARLINK-1204 3.5 21:35:34 10° WSW 21:39:42 71° SSE 21:43:50 10° ENE
STARLINK-1128 3.6 21:36:06 10° WNW 21:40:17 83° NNE 21:44:27 10° E
Cosmos 2082 Rocket 2.7 21:34:51 10° NW 21:40:23 50° WSW 21:44:18 19° S
STARLINK-1241 4.4 21:40:29 21° S 21:42:16 30° SE 21:45:55 10° E
Aureole 2 4.2 21:38:56 10° NNW 21:42:28 86° WSW 21:43:49 32° SSE
STARLINK-1122 3.9 21:38:51 10° WNW 21:42:53 51° SSW 21:45:00 25° SE
Cosmos 1470 4.3 21:39:54 10° NNE 21:43:11 25° ENE 21:45:16 16° ESE
Okean 1 Rocket 3.3 21:39:28 10° NNW 21:43:55 65° W 21:46:51 21° S
STARLINK-1238 3.5 21:40:30 10° WSW 21:44:38 74° SSE 21:48:47 10° ENE
SeaSat 1 2.6 21:39:53 10° NE 21:44:45 55° ESE 21:48:18 18° S
ERS-1 Rocket 4.4 21:40:34 10° SSW 21:44:57 30° W 21:49:23 10° NNW
STARLINK-1113 3.6 21:41:05 10° WNW 21:45:15 85° NNE 21:49:25 10° ESE
Cosmos 1110 Rocket 4.3 21:43:28 21° S 21:46:38 48° ESE 21:51:37 10° NE
STARLINK-1239 4.3 21:45:15 21° S 21:47:12 32° SE 21:50:55 10° E
STARLINK-1126 3.9 21:43:48 10° WNW 21:47:48 48° SSW 21:49:44 26° SSE
Cosmos 1833 Rocket 4.1 21:44:03 10° NW 21:48:48 29° WSW 21:52:51 13° SSW
STARLINK-1201 3.5 21:45:30 10° WSW 21:49:38 77° SSE 21:53:47 10° ENE
STARLINK-1119 3.6 21:46:04 10° WNW 21:50:14 87° NNE 21:54:23 10° ESE
Cosmos 1805 3.2 21:47:26 10° NNW 21:51:23 84° W 21:53:26 27° S
SL-4 R/B 2.9 21:49:01 10° WNW 21:51:37 23° WSW 21:52:33 20° SW
EO 1 Del DPAF 3.5 21:48:18 10° NNE 21:52:00 49° E 21:53:37 29° SSE
Aureole 2 Rocket 2.5 21:51:13 35° SSE 21:52:06 46° ESE 21:55:05 10° NE
STARLINK-1240 4.2 21:50:02 20° SSW 21:52:10 34° SE 21:55:56 10° E
BREEZE-M DEB (TANK) 4.4 21:36:29 10° W 21:52:39 68° SSW 21:56:22 15° ESE
STARLINK-1082 4.0 21:48:50 10° WNW 21:52:48 45° SSW 21:54:34 28° SSE
Cosmos 304 Rocket 3.8 21:50:10 20° S 21:53:26 66° ESE 21:58:13 10° NNE
STARLINK-1206 3.5 21:50:28 10° WSW 21:54:36 80° SSE 21:58:46 10° ENE
NOSS 3-2 (A) 4.1 21:47:51 10° NW 21:55:06 75° NE 22:02:51 12° SE
STARLINK-1114 3.6 21:51:04 10° WNW 21:55:14 90° ENE 21:59:11 11° ESE
Okean 2 3.7 21:53:51 27° SSE 21:55:48 52° E 21:59:52 10° NNE
Cosmos 1092 Rocket 4.0 21:52:19 20° S 21:56:40 72° E 22:02:48 10° NNE
Cosmos 1455 Rocket 3.4 21:52:31 10° N 21:56:50 56° ENE 21:59:07 26° SE
STARLINK-1216 4.1 21:54:48 20° SSW 21:57:07 36° SE 22:00:56 10° E
Cosmos 332 Rocket 3.9 21:52:44 12° SSW 21:57:21 81° WNW 22:02:18 10° NNE
STARLINK-1100 4.1 21:53:49 10° WNW 21:57:45 43° SSW 21:59:21 29° SSE
Cosmos 2369 Rocket 3.5 21:57:14 19° SE 21:59:23 24° ESE 22:03:46 10° NE
STARLINK-1205 3.5 21:55:26 10° WSW 21:59:35 83° SSE 22:03:45 10° ENE
STARLINK-1130 (DARKSAT) 3.5 21:56:01 10° WNW 22:00:11 88° SSW 22:03:56 13° ESE
ISS -2.9 21:57:56 10° W 22:00:59 32° SSW 22:01:21 31° SSW
STARLINK-1237 4.1 21:59:34 19° SSW 22:02:04 38° SSE 22:05:56 10° E
USA 238 DEB 3.9 21:55:17 10° NW 22:02:28 79° NE 22:08:58 14° SE
USA 238 3.9 21:55:23 10° NW 22:02:33 78° NE 22:09:05 14° SE
STARLINK-1083 4.1 21:58:48 10° WNW 22:02:42 40° SSW 22:04:07 30° SSE
Cosmos 1066 Rocket 4.3 21:58:19 15° SSW 22:02:54 71° WNW 22:08:17 10° N
STARLINK-67 2.6 22:01:00 10° WNW 22:02:31 44° WNW 22:02:31 44° WNW
Cosmos 1378 3.1 22:02:30 27° SSW 22:04:27 84° W 22:08:12 10° N
STARLINK-1218 3.5 22:00:24 10° WSW 22:04:33 86° SSE 22:08:43 10° ENE
STARLINK-1084 3.5 22:01:00 10° WNW 22:05:10 85° SSW 22:08:43 14° ESE
Cosmos 1842 3.6 22:05:25 30° SSE 22:07:00 50° E 22:10:48 10° NNE
STARLINK-1202 4.0 22:04:21 18° SSW 22:07:02 41° SSE 22:10:57 10° ENE
STARLINK-1125 4.2 22:03:48 10° W 22:07:40 38° SSW 22:08:54 30° S
OPS 6432 4.4 22:06:17 10° NW 22:09:19 77° NE 22:11:02 28° SE
STARLINK-1254 3.5 22:05:23 10° WSW 22:09:32 88° SSE 22:13:42 10° ENE
Cosmos 1943 Rocket 2.9 22:07:36 24° SSE 22:10:06 36° ESE 22:15:10 10° NE
STARLINK-1098 3.5 22:06:00 10° WNW 22:10:10 82° SSW 22:13:31 15° ESE
Cosmos 1025 Rocket 4.4 22:08:42 20° ESE 22:10:21 25° E 22:13:53 10° NNE
Cosmos 1331 Rocket 4.0 22:07:06 23° S 22:10:21 67° ESE 22:15:31 10° NNE
STARLINK-1109 4.3 22:08:47 10° W 22:12:36 36° SW 22:13:41 30° S
SL-8 R/B 3.7 22:08:47 10° W 22:13:30 56° S 22:17:57 11° ESE
STARLINK-1231 3.6 22:10:23 10° WSW 22:14:32 89° NNW 22:18:42 10° ENE
STARLINK-1123 3.5 22:10:59 10° WNW 22:15:08 80° SSW 22:18:17 17° ESE
Cosmos 1437 Rocket 4.4 22:12:31 10° SW 22:15:52 29° WNW 22:19:15 10° N
STARLINK-1246 3.8 22:13:53 16° SW 22:16:57 46° SSE 22:20:55 10° ENE
Cosmos 2278 Rocket 3.5 22:11:49 10° WSW 22:17:11 41° NW 22:22:35 10° NNE
STARLINK-1091 4.4 22:13:48 10° W 22:17:33 34° SW 22:18:27 30° S
STARLINK-1232 3.6 22:15:22 10° WSW 22:19:31 87° N 22:23:41 10° ENE
STARLINK-1097 3.5 22:15:58 10° WNW 22:20:06 77° SSW 22:23:04 19° ESE
Terra 3.7 22:17:24 11° SW 22:20:54 22° W 22:24:35 10° NW
ATLAS 5 CENTAUR R/B 3.6 22:23:07 12° E 22:23:07 12° E 22:23:24 10° E
ALOS 2 2.8 22:19:22 28° SSE 22:21:38 67° ENE 22:26:01 10° N
STARLINK-1224 3.8 22:18:40 15° SW 22:21:54 48° SSE 22:25:54 10° ENE
STARLINK-1228 3.3 22:19:00 10° W 22:22:20 69° N 22:25:39 10° E
Lacrosse 5 3.0 22:18:09 10° WNW 22:22:23 27° SW 22:24:01 23° SSW
STARLINK-1072 4.5 22:18:49 10° W 22:22:31 32° SW 22:23:15 29° SSW
S3M 4.3 22:17:55 10° N 22:23:57 56° ENE 22:27:54 22° SE
Thor Agena Rocket 3.6 22:19:04 10° NNE 22:24:24 82° WNW 22:28:06 20° SSW
STARLINK-1208 3.6 22:20:19 10° WSW 22:24:29 85° NNW 22:28:39 10° ENE
STARLINK-1099 3.5 22:20:55 10° WNW 22:25:04 74° SSW 22:27:49 20° ESE
STARLINK-1234 3.2 22:22:01 10° W 22:25:09 67° N 22:28:16 10° E
Spot 4 4.1 22:23:24 26° S 22:26:03 63° WSW 22:30:54 10° NNW
STARLINK-1212 3.1 22:23:22 10° W 22:26:28 68° N 22:29:34 10° E
STARLINK-1225 3.7 22:23:26 14° SW 22:26:52 51° SSE 22:30:55 10° ENE
STARLINK-1105 3.1 22:23:51 10° W 22:26:57 68° N 22:30:02 10° E
STARLINK-1209 3.2 22:23:56 10° W 22:27:05 68° N 22:30:14 10° E
STARLINK-1247 3.1 22:24:45 10° W 22:27:52 68° N 22:30:59 10° E
STARLINK-1227 3.1 22:25:13 10° W 22:28:18 68° N 22:31:24 10° E
STARLINK-1226 3.1 22:26:04 10° W 22:29:11 68° N 22:32:17 10° E
STARLINK-1271 3.6 22:25:20 10° W 22:29:29 83° N 22:33:39 10° ENE
STARLINK-1104 3.5 22:25:54 10° WNW 22:30:03 70° SSW 22:32:37 22° ESE
STARLINK-1215 3.2 22:27:00 10° W 22:30:08 68° N 22:33:15 10° E
Cosmos 1428 Rocket 4.5 22:26:14 23° S 22:30:24 85° E 22:36:45 10° N
SL-4 R/B 0.9 22:31:54 59° WNW 22:31:54 59° WNW 22:33:55 10° NNW
STARLINK-1230 3.7 22:28:12 13° SW 22:31:49 54° SSE 22:35:53 10° ENE
STARLINK-1217 3.2 22:28:47 10° W 22:31:54 68° N 22:35:00 10° E
BREEZE-M DEB (TANK) 3.2 22:21:16 10° WSW 22:32:06 58° S 22:35:24 10° E
Cosmos 1544 Rocket 3.5 22:28:17 10° N 22:32:38 90° N 22:34:36 32° S
STARLINK-1229 3.2 22:29:42 10° W 22:32:49 68° N 22:35:56 10° E
NOSS 8 (F) 4.4 22:31:10 20° SW 22:33:08 69° NW 22:36:14 10° NE
STARLINK-1270 3.2 22:30:34 10° W 22:33:41 68° N 22:36:48 10° E
STARLINK-1154 3.7 22:30:19 10° W 22:34:28 81° N 22:38:38 10° ENE
Cosmos 1726 3.3 22:31:25 10° N 22:34:48 33° ENE 22:36:25 23° ESE
STARLINK-1144 3.5 22:30:54 10° WNW 22:35:01 67° SSW 22:37:24 24° SE
STARLINK-1189 3.2 22:32:24 10° W 22:35:31 68° N 22:38:39 10° E
STARLINK-1188 3.2 22:33:17 10° W 22:36:24 68° N 22:39:31 10° E
STARLINK-1243 3.6 22:32:58 11° SW 22:36:48 57° SSE 22:40:52 10° ENE
STARLINK-1235 3.1 22:34:01 10° W 22:37:06 67° N 22:40:12 10° E
STARLINK-1187 3.1 22:34:25 10° W 22:37:30 67° N 22:40:36 10° E
SL-27 R/B 2.4 22:34:45 10° NNW 22:38:24 88° ENE 22:39:37 40° SSE
STARLINK-1191 3.1 22:35:46 10° W 22:38:53 67° N 22:41:58 10° E
STARLINK-1197 3.7 22:35:18 10° W 22:39:27 80° N 22:43:37 10° ENE
STARLINK-1221 3.1 22:36:39 10° W 22:39:45 67° N 22:42:50 10° E
STARLINK-1103 3.6 22:35:53 10° WNW 22:39:59 64° SSW 22:42:10 26° SE
STARLINK-1222 3.2 22:37:32 10° W 22:40:38 67° N 22:43:44 10° E
STARLINK-1214 3.1 22:38:27 10° W 22:41:33 67° N 22:44:39 10° E
Cosmos 1553 Rocket 4.0 22:35:21 10° N 22:41:44 87° W 22:45:31 26° S
STARLINK-1236 3.6 22:37:44 10° SW 22:41:46 60° SSE 22:45:51 10° ENE
Cosmos 1953 3.0 22:38:05 10° N 22:41:59 46° ENE 22:43:45 27° SE
Abrixas rocket 4.0 22:40:17 10° W 22:41:15 17° WSW 22:41:15 17° WSW
Cosmos 1340 Rocket 3.8 22:39:44 10° N 22:43:32 38° ENE 22:45:33 23° SE
STARLINK-1198 3.7 22:40:15 10° W 22:44:24 79° N 22:48:34 10° E
STARLINK-1101 3.6 22:40:51 10° WNW 22:44:57 61° SSW 22:46:57 28° SE
Cosmos 1461 2.9 22:43:04 21° SW 22:45:52 87° NW 22:50:18 10° NE
Cosmos 1271 Rocket 2.9 22:46:32 36° SSE 22:47:48 56° E 22:51:37 10° NNE
USA 215 3.8 22:45:48 25° S 22:49:03 40° SW 22:55:10 10° WNW
STARLINK-1199 3.7 22:45:17 10° W 22:49:26 77° N 22:53:36 10° E
STARLINK-1102 3.6 22:45:51 10° WNW 22:49:56 58° SSW 22:51:45 30° SE
Aureole 3 Rocket 4.0 22:45:01 10° NNW 22:50:00 70° W 22:54:05 25° S
Cosmos 2026 Rocket 4.2 22:45:53 20° SSW 22:50:17 68° WNW 22:56:38 10° N
Cosmos 1758 3.3 22:46:26 10° NNW 22:50:30 79° W 22:52:04 36° S
COSMOS 2487 4.2 22:48:39 10° N 22:51:41 27° ENE 22:53:49 15° ESE
STARLINK-1269 3.5 22:47:34 10° WSW 22:51:41 67° SSE 22:55:48 10° ENE
STARLINK-1210 3.7 22:50:15 10° W 22:54:24 76° N 22:58:34 10° E
STARLINK-1111 3.7 22:50:50 10° WNW 22:54:53 55° SSW 22:56:31 32° SE
Cosmos 1707 2.9 22:53:56 37° SSE 22:55:17 63° E 22:59:10 10° NNE
STARLINK-1200 3.5 22:52:33 10° WSW 22:56:40 70° SSE 23:00:48 10° ENE
NOSS 2-2 (D) 3.1 22:57:13 32° SW 22:58:51 80° SE 23:03:03 10° NE
STARLINK-1219 3.8 22:55:14 10° W 22:59:23 75° N 23:03:33 10° E
STARLINK-1073 3.7 22:55:50 10° WNW 22:59:52 52° SSW 23:01:19 34° SSE
NOSS 3-2 (C) 4.0 22:52:41 10° NW 23:00:03 82° SW 23:07:07 16° SE
Meteor 1-16 Rocket 4.4 22:54:26 10° N 23:00:05 64° ENE 23:03:23 24° SSE
YAOGAN 11 4.1 22:58:51 30° SSE 23:00:58 75° ENE 23:05:19 10° NNW
STARLINK-1192 3.5 22:57:30 10° WSW 23:01:39 73° SSE 23:05:47 10° ENE
Cosmos 1975 Rocket 4.1 23:00:54 19° SW 23:03:41 40° WNW 23:07:54 10° N
Cosmos 2292 Rocket 4.0 23:02:09 30° SSE 23:03:50 45° E 23:07:20 10° NNE
STARLINK-1211 3.8 23:00:12 10° W 23:04:22 75° N 23:08:31 10° E
STARLINK-1121 3.8 23:00:48 10° WNW 23:04:48 49° SSW 23:06:04 35° SSE
STARLINK-1244 3.5 23:02:27 10° WSW 23:06:36 76° SSE 23:10:45 10° ENE
STARLINK-1245 3.8 23:05:13 10° W 23:09:22 74° N 23:13:31 10° E
STARLINK-1106 3.9 23:05:47 10° WNW 23:09:47 46° SSW 23:10:51 37° SSE
Meteor 2-10 3.9 23:06:15 10° NNW 23:11:22 82° W 23:13:53 30° S
STARLINK-1138 3.5 23:07:26 10° WSW 23:11:35 79° SSE 23:15:44 10° ENE
ERBS 3.4 23:09:03 10° W 23:12:16 45° NNW 23:15:30 10° ENE
NOSS 3-4 (A) 4.3 23:10:07 24° SSE 23:12:27 32° ESE 23:17:57 10° ENE
NOSS 3-4 (C) 4.3 23:10:13 24° SSE 23:12:34 32° ESE 23:18:03 10° ENE
Aureole 3 3.3 23:08:55 10° N 23:12:48 61° ENE 23:13:55 37° SE
Cosmos 1242 Rocket 3.0 23:11:36 32° SW 23:13:01 55° WNW 23:16:40 10° N
SL-4 R/B 4.2 23:13:39 16° SE 23:13:39 16° SE 23:15:56 10° E
STARLINK-1203 3.5 23:09:47 10° WSW 23:14:00 81° SSE 23:18:13 10° ENE
STARLINK-1233 3.8 23:10:11 10° W 23:14:21 74° N 23:18:30 10° E
STARLINK-1112 3.9 23:10:47 10° WNW 23:14:45 44° SSW 23:15:39 37° S
ATLAS 3B R/B 3.0 23:09:29 10° NW 23:16:14 68° NE 23:23:10 10° ESE
STARLINK-1143 3.5 23:12:24 10° WSW 23:16:34 82° SSE 23:20:43 10° ENE
NOSS 2-2 (E) 3.7 23:15:11 18° WSW 23:17:52 63° NW 23:22:16 10° NE
SL-16 R/B 4.3 23:13:38 10° ESE 23:18:39 27° NE 23:23:42 10° N
Cosmos 1470 3.8 23:15:47 10° NNW 23:19:18 33° W 23:20:37 26° SW
STARLINK-1204 3.8 23:15:11 10° W 23:19:21 74° N 23:23:30 10° E
Cosmos 2266 Rocket 4.0 23:16:09 27° S 23:19:41 75° E 23:25:45 10° NNE
STARLINK-1128 4.0 23:15:47 10° WNW 23:19:42 41° SSW 23:20:26 37° S
Cosmos 1674 3.7 23:18:32 27° SE 23:19:46 34° E 23:23:13 10° NNE
CENTAUR R/B 3.1 23:12:13 10° NW 23:20:07 76° SW 23:27:41 15° SSE
ATLAS CENTAUR R/B 3.3 23:20:47 16° SE 23:21:22 16° ESE 23:24:01 10° ENE
STARLINK-1241 3.5 23:17:22 10° WSW 23:21:32 85° SSE 23:25:42 10° ENE
Cosmos 1503 Rocket 4.0 23:16:43 10° NNW 23:22:00 76° WSW 23:24:52 28° SSE
SeaSat 1 4.0 23:17:42 10° NNE 23:22:06 33° NW 23:26:29 10° WSW
STARLINK-1238 3.8 23:20:09 10° W 23:24:18 74° N 23:28:27 10° E
STARLINK-1113 4.1 23:20:47 10° WNW 23:24:39 39° SSW 23:25:12 37° SSW
STARLINK-1239 3.5 23:22:20 10° WSW 23:26:30 87° SSE 23:30:40 10° ENE
STARLINK-1201 3.8 23:25:10 10° W 23:29:19 74° N 23:33:28 10° E
STARLINK-1119 4.1 23:25:47 10° W 23:29:36 36° SSW 23:29:59 36° SSW
BREEZE-M DEB 4.1 23:26:32 10° WSW 23:30:29 73° SSE 23:45:46 10° E
STARLINK-1240 3.5 23:27:20 10° WSW 23:31:30 90° SSE 23:35:40 10° ENE
BREEZE-M DEB (TANK) 3.2 23:28:17 10° W 23:31:38 47° SSW 23:36:40 10° ESE
Cosmos 1867 3.5 23:26:19 10° NW 23:31:50 90° SW 23:36:08 17° SE
Cosmos 883 Rocket 4.4 23:27:20 10° NNW 23:33:31 79° W 23:37:08 26° S
STARLINK-1206 3.8 23:30:08 10° W 23:34:18 74° N 23:38:27 10° E
STARLINK-1114 4.2 23:30:48 10° W 23:34:34 34° SW 23:34:46 34° SSW
Helios 1A 3.7 23:33:57 29° SW 23:35:26 40° W 23:39:24 10° NNW
Cosmos 968 Rocket 4.0 23:30:54 10° NW 23:35:49 45° WSW 23:38:01 28° SSW
STARLINK-1216 3.6 23:32:18 10° WSW 23:36:29 88° N 23:40:38 10° ENE
Cosmos 1354 Rocket 4.1 23:31:38 10° NNW 23:36:53 66° WSW 23:39:38 28° S
Meteor 2-19 Rocket 4.4 23:34:37 26° SSW 23:38:17 85° W 23:44:29 10° N
Cosmos 2227 Rocket 4.3 23:33:39 10° NNW 23:38:27 27° NE 23:43:13 10° E
Cosmos 1908 3.2 23:34:41 10° N 23:38:32 79° ENE 23:40:02 35° SSE
STARLINK-1205 3.8 23:35:08 10° W 23:39:17 74° N 23:43:26 10° E
STARLINK-1130 (DARKSAT) 4.3 23:35:47 10° W 23:39:30 32° SW 23:39:32 32° SW
NOSS 2-2 (C) 4.0 23:37:49 15° WSW 23:40:43 51° NW 23:45:00 10° NE
ATLAS 2AS CENTAUR R/B 3.3 23:35:54 24° SSW 23:40:53 57° SE 23:48:36 10° NE
STARLINK-1237 3.6 23:37:18 10° WSW 23:41:28 86° N 23:45:38 10° ENE
Cosmos 2369 Rocket 2.3 23:38:59 21° SW 23:42:52 72° WNW 23:48:33 10° NNE
STARLINK-1218 3.8 23:40:06 10° W 23:44:16 75° N 23:48:25 10° E
STARLINK-1084 4.5 23:40:47 10° W 23:44:19 30° SW 23:44:19 30° SW
RESURS DK-1 4.4 23:43:24 14° SE 23:44:46 16° ESE 23:47:15 10° ENE
CZ-2D R/B 4.1 23:41:34 10° NE 23:45:03 17° E 23:48:29 10° SE
STARLINK-1202 3.6 23:42:17 10° W 23:46:27 84° NNW 23:50:38 10° ENE
Cosmos 1726 Rocket 3.6 23:43:09 10° N 23:47:30 76° ENE 23:49:41 29° SSE
Cosmos 1025 Rocket 4.0 23:45:34 22° SW 23:47:47 38° WNW 23:51:50 10° N
Cosmos 2315 Rocket 4.0 23:42:13 10° NNW 23:48:26 76° W 23:52:12 25° S
STARLINK-1254 3.8 23:45:06 10° W 23:49:15 76° N 23:53:24 10° E
Helios 1B rocket 2.4 23:46:56 10° NNE 23:51:05 75° ESE 23:52:51 33° S
Cosmos 1943 Rocket 2.9 23:49:04 14° WSW 23:53:44 48° NW 23:59:11 10° NNE
STARLINK-1231 3.7 23:50:06 10° W 23:54:16 77° N 23:58:25 10° E
Resurs 1-4 Rocket 3.9 23:51:10 10° NE 23:55:13 22° E 23:59:06 10° SE
SL-8 R/B 4.4 23:51:21 10° W 23:55:31 30° SSW 23:55:50 30° SSW
